FENGYUN 1C DEB, 37054

Orbit data source: Space-Track

FENGYUN 1C DEB, 37054 is space debris in SSO originally from a launch on Mon, 10 May 1999 UTC launched from the Taiyaun Space Center, China (TSC). Fengyun 1C debris stems from the Chinese weather satellite Fengyun-1C, which was intentionally destroyed by a Chinese anti-satellite missile in 2007. This event dramatically increased the amount of space debris, with thousands of trackable fragments posing hazards to satellites and human spaceflight. The Fengyun 1C debris cloud has become a focal point in discussions about space sustainability and the need for international regulations to prevent the creation of new debris.

Loading next visibility...
Identifier
37054, 1999-025EEN
Orbit
SSO
Country
Flag of CNCN / PRC
Related business
Manufacturer
Unknown
Mission
Spacecraft
Bus & Motor
Unknown
Mass
Unknown
Launch date (UTC)
1999-05-10 (27 years ago)
Launch vehicle
Unknown
Launch site
Taiyaun Space Center, China (TSC)
Object type
Payload
Rocket body
Debris
Shape & HBR
Unknown shape, 0.1 m
Radar Cross Section
Small (<0.1 m²)

Expand to show TLE details & history
Last TLE update: 4 days ago

TLE from 4 days ago
0 FENGYUN 1C DEB
1 37054U 99025EEN 26129.69969398  .00000455  00000-0  22362-3 0  9995
2 37054  98.5682 112.2553 0100853  38.2694 322.5586 14.19670963665281
Epoch: 2026-05-09T16:47Z
TLE epoch observation values (Epoch: 2026-05-09T16:47:33.559Z)
Latitude
0.00003°
Longitude
-7.14791°
Altitude
771.956 km
Speed
7.498 km/s
True Right ascension
07h 29m 01s
True Declination
0° 00' 00"
Sunlit
Object was in daylight at epoch
Visualization orbit readout
Latitude
Unknown
Longitude
Unknown
Altitude
Unknown
Speed
Unknown
Apparent Right ascension
Unknown
Apparent Declination
Unknown
Sunlit
N/A
Visualization observer readout
Local Sidereal Time
03:57:25
Azimuth
Unknown
Elevation
Unknown
Doppler factor
Unknown
Orbital elements
Apogee altitude
896.25 km
Perigee altitude
750.986 km
Semi-major axis
7,201.755 km
Eccentricity
0.01009
Inclination
98.5682°
RAAN
112.2553°
Arg. of periapsis
38.2694°
True anomaly
321.84892°
Mean anomaly
322.5586°
Eccentric anomaly
322.20447°
Mean motion
3.55129 °/min
Orbital period
101.37 mins
BSTAR
0.00022362
Loading maneuver chart data...
Computing Atmospheric mass density...

Documentation

Showing up to 5 results
|